Theta_e
336 332 334 341 339 338 338 348 348 349 346 348 350 346 345 337 342 344 344 344 344 342 344 338 337 337 338 339 344 346 347 346 345 344 345 345 343 343 341 340 346 349 350
340 339 336 337 339 340 340 345 345 346 349 348 350 346 343 345 347 346 348 342 345 348 346 340 340 345 342 339 339 340 343 347 346 346 346 345 345 343 341 346 348 349 351
341 341 341 341 341 341 342 343 345 344 344 349 349 348 346 346 346 348 348 349 347 343 346 348 343 341 341 338 336 337 338 343 343 341 343 346 345 343 343 345 350 349 348
344 343 344 344 343 343 343 344 343 344 345 344 344 344 344 347 346 348 349 345 346 348 344 346 349 351 347 346 347 347 343 339 337 335 334 337 340 338 342 352 352 351 347
339 342 343 343 344 344 345 345 348 348 347 346 346 347 343 342 344 345 347 348 347 347 350 348 346 345 348 348 348 349 351 348 345 346 337 336 338 338 341 340 338 333 329
338 342 341 342 344 344 345 346 350 351 349 349 350 350 349 349 347 345 346 348 347 348 347 349 348 349 347 348 347 350 349 348 348 349 349 348 347 344 342 342 339 337 338
342 341 340 342 341 340 340 345 346 347 348 347 348 347 351 348 349 348 347 346 346 352 353 352 351 350 350 348 348 348 347 348 349 352 352 351 350 346 347 343 339 342 342
336 338 341 341 341 339 341 341 341 343 344 348 349 348 348 348 352 351 351 349 347 348 350 351 350 348 347 346 347 346 342 342 344 348 349 346 345 344 345 345 346 342 339
330 331 332 332 340 338 339 341 343 342 342 343 347 347 348 349 349 350 350 349 349 350 347 346 348 349 349 349 349 347 345 343 343 343 343 343 343 345 349 349 350 349 346
327 326 325 326 329 329 328 325 325 329 337 338 341 343 345 346 346 347 350 350 350 350 350 348 350 350 349 348 349 349 349 347 347 347 346 347 349 349 349 348 348 348 347
316 316 319 321 322 322 319 317 318 326 329 332 337 340 341 343 344 344 345 346 348 349 349 350 350 350 350 350 350 350 350 351 350 350 351 351 350 350 350 349 349 349 349
314 313 313 314 314 314 315 316 318 323 325 328 335 339 339 337 338 333 335 338 341 343 345 347 348 349 349 349 350 349 349 350 353 353 352 351 351 350 350 350 350 350 350
311 310 310 310 311 314 315 316 320 323 323 324 326 328 328 326 325 323 320 318 319 327 335 339 340 341 344 345 346 348 349 349 349 350 350 350 351 352 351 349 350 351 352
308 309 310 311 312 315 318 320 321 321 322 321 321 321 322 322 320 319 318 318 318 318 318 319 322 330 334 337 336 335 337 339 344 348 349 349 349 348 350 350 350 351 351
307 307 307 308 310 312 314 317 318 317 317 318 318 318 318 318 318 318 318 318 319 319 318 318 317 317 320 323 324 323 323 327 327 334 346 351 351 351 351 351 352 352 352
305 305 305 305 305 305 306 308 309 311 313 313 314 316 317 317 318 318 318 318 319 319 318 317 316 316 315 315 316 318 320 322 325 326 329 336 340 342 345 344 341 350 351
302 302 301 301 301 302 302 302 303 303 303 304 306 307 310 313 315 316 316 317 318 318 318 317 317 315 314 316 318 322 325 328 332 335 336 342 344 343 342 343 344 346 349
301 301 300 300 300 300 301 301 301 302 302 302 303 303 304 304 305 308 310 312 313 314 315 315 316 317 317 320 327 331 333 333 334 331 337 338 339 342 345 345 342 342 342
300 299 299 299 299 299 299 300 300 300 300 301 302 302 303 303 304 304 304 304 306 313 315 316 317 319 321 323 326 323 325 329 328 330 338 341 341 343 341 340 341 341 341
300 299 299 299 300 300 300 300 300 300 300 300 300 300 301 302 302 303 303 303 303 304 304 306 310 313 315 317 319 320 322 322 326 329 329 332 336 337 338 339 342 340 341
301 299 299 300 300 300 300 299 299 299 298 298 299 299 299 299 299 300 300 301 301 301 302 303 304 305 307 312 314 315 317 318 319 318 319 323 326 327 328 330 330 336 344
300 300 299 300 300 299 299 298 298 297 297 297 297 298 298 298 298 298 298 298 299 299 299 300 301 303 304 307 310 311 313 314 314 314 319 322 323 323 321 318 317 317 331
302 301 301 301 301 300 299 298 297 296 296 296 296 296 296 296 296 296 297 297 297 297 295 296 298 300 301 303 305 306 307 309 312 314 316 318 320 321 321 318 314 315 320
303 301 302 302 301 302 301 299 297 296 295 295 295 295 295 295 295 295 295 295 295 295 294 294 295 296 298 299 300 301 302 303 304 308 311 314 316 318 319 319 315 313 317
304 302 302 302 302 303 302 299 298 296 295 295 295 295 294 294 294 294 294 294 294 294 294 293 295 296 296 298 299 299 300 300 301 303 306 309 312 315 316 315 313 312 316
305 303 303 302 303 303 302 300 298 296 295 295 295 295 294 294 293 293 293 293 293 292 293 293 293 294 295 296 297 299 299 300 301 303 305 307 309 312 312 311 312 314 316
Wind_Speed
25 27 29 27 23 20 21 21 17 15 15 15 14 11 11 9 9 9 10 12 10 9 8 9 11 11 13 14 13 11 9 9 10 13 14 16 18 20 20 16 9 11 12
25 25 24 24 22 22 22 25 22 18 17 15 13 10 13 13 11 10 9 10 13 10 6 7 10 11 11 14 17 17 13 14 14 17 18 20 21 21 16 18 15 16 15
26 25 24 22 23 25 24 24 24 23 23 21 20 17 13 15 14 14 12 12 13 13 12 10 7 8 9 11 15 18 19 19 19 21 22 24 25 25 19 18 15 14 13
19 19 24 25 27 27 24 22 24 25 23 21 20 20 20 18 17 17 18 17 15 15 14 14 13 13 11 10 10 9 11 15 19 22 24 27 27 24 22 18 19 22 25
27 21 23 28 27 27 26 25 23 22 22 21 19 18 17 18 18 17 18 18 18 17 16 15 15 17 17 15 13 15 15 15 14 16 17 18 18 17 18 21 25 26 26
30 27 22 17 13 15 23 26 25 22 22 22 23 21 19 19 19 18 18 18 17 15 16 14 14 15 18 18 20 17 17 20 22 23 20 21 21 20 20 22 24 25 27
16 15 18 20 11 11 18 14 13 17 21 21 23 23 22 22 20 20 21 22 22 22 23 24 24 22 20 19 19 20 21 22 21 22 25 25 25 22 22 22 21 23 26
13 8 10 9 13 14 18 16 15 18 23 23 23 24 25 23 20 21 22 23 25 27 29 28 27 26 25 24 24 25 25 24 25 26 28 30 30 29 28 28 27 28 31
14 14 12 10 6 5 12 18 22 23 23 20 17 18 17 17 19 20 23 26 26 26 26 28 29 31 32 30 30 32 33 34 31 31 32 34 33 32 30 30 30 32 37
10 9 9 10 8 6 5 3 0 2 3 7 9 10 13 18 21 22 22 24 25 27 26 28 28 31 31 31 33 34 36 36 33 31 28 27 26 25 24 25 26 31 34
4 4 5 6 6 5 4 2 2 3 2 1 4 1 3 7 11 15 15 14 16 22 24 26 27 29 29 29 31 33 35 33 31 31 32 31 30 29 28 28 27 27 28
6 6 7 6 7 6 4 3 3 2 2 4 6 5 2 6 6 9 10 12 15 17 18 19 23 26 28 31 33 33 30 31 31 30 32 34 34 33 31 31 32 32 31
8 8 9 9 10 8 7 6 6 6 5 4 3 4 5 7 11 14 15 14 15 16 18 20 21 21 23 25 24 24 28 30 35 40 41 41 40 39 39 39 37 36 36
4 2 4 5 7 9 8 8 8 8 7 8 9 10 12 14 14 13 15 16 16 17 18 18 19 22 25 27 29 27 26 27 28 29 32 38 37 36 36 36 39 39 39
3 4 3 1 3 5 8 9 9 8 9 10 12 13 16 17 16 17 19 20 20 22 24 24 22 21 23 24 26 25 25 26 26 27 28 28 28 27 28 27 28 30 31
1 2 5 6 6 4 2 3 8 11 14 16 18 21 20 18 22 23 23 21 21 23 27 29 30 27 27 26 26 27 26 25 24 23 24 27 28 32 32 28 29 29 30
3 4 6 7 7 8 9 9 9 5 6 8 11 15 20 26 29 29 28 27 27 29 31 33 34 34 32 29 27 25 26 23 22 22 21 22 24 27 26 28 30 32 34
4 6 7 9 9 11 12 14 16 17 18 17 14 16 16 19 22 27 31 32 32 31 32 32 32 30 30 29 24 24 25 25 23 23 22 24 25 26 27 29 31 33 37
3 6 8 10 11 13 14 16 18 20 22 23 23 20 22 23 24 25 25 26 31 33 31 29 28 29 29 27 29 28 27 27 26 21 19 19 17 20 27 30 31 34 33
4 5 7 9 11 13 15 18 20 22 25 27 29 30 31 32 32 31 31 32 32 33 34 36 36 37 35 34 34 34 36 36 31 30 30 27 29 27 30 32 27 32 31
5 6 5 9 12 15 17 19 22 24 27 29 30 30 31 33 35 35 36 35 36 37 37 38 39 41 43 41 42 41 39 41 42 40 37 37 34 35 34 35 36 36 30
6 7 7 8 12 15 19 21 24 27 29 32 33 34 32 33 33 34 35 36 36 38 40 40 41 39 39 37 37 45 47 45 46 46 41 39 41 37 35 35 36 36 36
5 8 10 8 12 16 20 22 25 27 30 32 33 34 33 33 34 34 34 35 37 38 39 38 41 40 42 40 39 43 47 53 49 46 48 47 45 46 42 39 37 37 36
9 10 13 12 15 17 20 21 24 26 27 30 32 31 32 33 34 34 34 35 36 37 38 38 38 38 40 43 44 46 50 50 55 54 52 53 53 51 50 46 42 41 37
16 13 15 14 16 19 21 21 25 27 29 31 33 33 34 35 35 35 34 34 36 37 38 37 38 39 39 42 45 47 48 50 51 51 55 57 57 54 53 52 48 45 42
18 17 17 16 17 20 21 21 24 25 27 29 32 32 34 36 35 34 34 34 35 35 35 35 36 36 37 37 39 44 46 47 46 44 43 49 52 55 54 53 49 43 43
Wind_Direction
214 211 214 217 222 223 224 222 219 231 239 247 249 249 226 219 203 214 224 229 229 225 244 253 238 239 245 254 263 272 287 290 287 286 299 304 302 308 318 321 311 314 328
218 213 214 212 220 226 227 219 226 230 237 246 243 239 236 234 226 218 226 239 242 251 256 265 239 250 259 264 268 270 277 280 292 292 296 297 299 309 316 326 323 325 328
221 221 223 225 229 233 236 230 229 233 237 242 248 251 258 240 243 245 248 252 257 262 249 251 257 255 261 269 273 269 268 277 289 293 293 294 298 307 308 317 323 327 327
221 232 227 226 229 232 229 234 236 240 243 248 250 253 252 251 254 254 256 262 265 264 259 255 261 264 271 275 278 293 285 277 281 289 287 286 292 297 301 308 307 313 318
226 239 236 229 226 234 236 233 229 235 237 244 248 252 254 249 253 257 259 265 263 260 261 265 272 269 271 271 278 287 293 291 290 300 303 302 301 307 303 303 308 312 312
217 229 244 249 229 226 235 239 240 235 233 235 235 238 245 252 256 255 258 262 264 263 268 273 278 279 274 276 264 267 274 283 291 294 298 299 301 306 308 309 309 311 315
195 208 229 238 251 265 245 237 244 253 247 246 250 246 243 247 245 252 254 256 260 263 270 271 271 272 273 276 277 275 274 275 279 288 287 288 294 302 306 306 309 304 302
120 152 206 235 234 257 262 270 266 270 255 246 246 249 253 251 256 258 258 259 261 260 262 267 272 272 272 273 274 276 276 274 272 276 280 285 289 293 294 296 298 296 296
123 123 132 134 167 226 243 253 253 256 261 254 244 244 255 261 266 263 263 263 263 261 261 261 267 269 272 275 277 278 280 280 282 282 283 285 287 289 290 291 289 291 292
133 130 127 131 152 167 161 162 248 5 287 278 274 272 261 259 268 274 269 268 268 269 268 263 264 267 268 267 268 270 272 275 282 284 280 277 280 283 286 283 284 282 287
157 162 169 177 195 198 172 142 103 87 75 94 122 68 298 256 271 278 283 287 283 270 271 272 271 269 271 272 269 269 271 275 274 274 274 275 276 279 281 283 283 282 284
273 267 248 240 244 249 242 198 200 182 101 52 74 70 30 347 327 343 320 296 294 292 288 283 281 273 271 272 271 268 272 275 274 274 276 276 278 282 286 290 290 287 285
271 267 261 259 256 260 259 242 227 230 230 240 238 234 270 296 316 322 320 317 310 301 295 294 298 300 302 300 302 293 287 283 279 276 276 274 278 282 284 286 288 289 289
332 281 255 252 243 237 242 239 247 258 260 271 281 285 285 287 291 293 302 302 299 299 299 297 295 290 292 294 295 296 293 292 291 291 285 279 280 282 285 283 282 284 286
32 54 68 140 231 241 249 255 255 273 280 282 291 298 301 300 301 302 299 295 293 295 295 297 299 299 295 294 294 296 299 292 298 291 286 284 285 285 286 292 292 291 284
47 41 30 19 11 3 314 252 275 273 272 274 274 277 275 281 281 283 284 286 287 288 290 295 298 302 303 306 306 305 303 305 300 293 295 285 287 282 280 282 292 290 284
63 41 18 9 5 360 354 344 329 321 302 286 281 275 275 276 274 278 281 282 283 286 290 294 296 298 298 298 302 306 308 309 308 312 302 297 295 290 285 282 281 280 279
38 34 24 19 15 10 5 0 354 346 340 338 331 319 301 289 285 284 283 282 283 283 286 289 294 294 291 294 294 302 301 301 299 301 301 299 297 293 291 288 291 284 285
76 46 34 30 27 21 15 9 4 359 353 345 337 329 323 313 308 306 302 297 290 286 285 284 283 286 287 285 284 287 289 292 291 291 293 295 300 305 294 291 286 295 295
41 33 25 19 15 12 10 6 1 358 354 351 347 342 335 325 321 317 312 307 303 295 291 286 283 282 281 283 283 283 284 280 279 281 279 279 281 287 288 292 305 288 294
21 0 356 12 10 9 7 4 360 357 353 350 346 342 336 328 324 320 316 311 307 302 297 289 285 282 280 277 280 280 280 281 282 281 281 282 282 281 280 284 293 289 292
12 13 6 6 7 7 4 2 358 354 352 349 345 342 337 330 324 319 315 312 307 303 299 292 286 284 281 276 281 277 275 276 278 281 282 283 284 282 283 284 285 291 281
327 348 356 346 357 358 356 357 354 350 350 348 345 341 336 331 327 322 316 313 310 306 300 294 290 287 281 275 276 277 280 275 273 274 276 277 284 286 285 285 286 286 284
268 312 336 336 330 337 344 346 345 345 347 349 348 342 335 331 327 323 319 316 313 308 303 298 295 290 282 279 279 278 277 279 278 271 271 274 277 280 282 283 283 281 278
252 282 320 325 323 326 331 332 336 340 343 346 348 344 340 335 331 328 325 321 315 310 305 300 297 296 289 281 279 278 279 279 278 276 270 269 271 274 277 279 279 278 275
251 265 297 304 310 314 319 322 330 335 339 344 345 341 338 334 330 329 328 326 322 317 312 308 303 295 288 284 279 277 277 278 278 275 272 267 266 268 271 273 273 270 269